Location: Black Forest
(43.4794°N, 75.0081°W)
Time: 18:17:38
(UTC-04:00)

ISS - Visible Passes

Search period start: 20 April 2014 00:00
Search period end: 30 April 2014 00:00
Orbit: 414 x 419 km, 51.6° (Epoch: 20 April)

Date Brightness Start Highest point End Pass type
(mag) Time Alt. Az. Time Alt. Az. Time Alt. Az.
20 Apr -3.3 21:29:07 10° WNW 21:32:29 73° SW 21:33:07 54° SSE visible
21 Apr -3.2 20:40:35 10° NW 20:43:56 69° NNE 20:46:33 16° ESE visible
21 Apr -0.7 22:18:07 10° W 22:19:27 15° WSW 22:19:27 15° WSW visible
22 Apr -1.8 21:28:59 10° WNW 21:31:53 27° SW 21:32:52 23° SSW visible
23 Apr -2.5 20:40:04 10° WNW 20:43:18 46° SW 20:46:17 12° SE visible
24 Apr -0.5 21:30:04 10° WSW 21:30:48 11° SW 21:31:32 10° SW visible
25 Apr -0.9 20:39:50 10° W 20:42:11 18° SW 20:44:33 10° S visible
